Weather Roundup
Issued by NWS

Home | Current Version | Previous Version | Text Only | Print | Product List | Glossary On
Versions: 1 2 3 4 5 6 7 8 9 10 11 12 13 14 15 16 17 18 19 20 21 22 23 24 25 26 27 28 29 30 31 32 33 34 35 36 37 38 39 40 41 42 43 44 45 46 47 48 49 50
000
NZUS93 KARX 041959
HRRWXR

CURRENT HOURLY OBSERVATIONS ACROSS
MUCH OF THE UPPER MISSISSIPPI VALLEY
NATIONAL WEATHER SERVICE LA CROSSE WI
300 PM CDT TUE AUG 04 2015


...SOUTHEAST MINNESOTA...


CITY           SKY/WX    TMP DP  RH WIND       PRES   REMARKS
ROCHESTER      MOSUNNY   77  57  50 VRB5      30.02F
ROCHESTER/MAYO FAIR      76  49  38 N5        30.02S
WINONA         MOSUNNY   79  54  41 NW8       29.99S
AUSTIN         PTSUNNY   79  46  31 CALM      30.01F
ALBERT LEA     PTSUNNY   75  48  38 W3        30.01F
DODGE CENTER   MOSUNNY   75  48  38 NW5       30.02S
PRESTON        MOSUNNY   74  55  51 CALM      30.03S
OWATONNA       MOSUNNY   77  48  36 W5        30.01S
FARIBAULT      MOSUNNY   77  54  44 CALM      30.01S
$$

...ELSEWHERE IN MINNESOTA...


CITY           SKY/WX    TMP DP  RH WIND       PRES   REMARKS
MINNEAPOLIS    MOSUNNY   80  51  36 NW8       29.97F
INTNL FALLS    CLOUDY    65  49  56 N7        30.03S
DULUTH         MOSUNNY   74  51  44 VRB7      29.99R
RED WING       MOSUNNY   81  46  30 CALM      29.97S
REDWOOD FALLS  MOSUNNY   80  46  30 S3        29.99S
MANKATO        MOSUNNY   75  50  41 S5        30.01S
WORTHINGTON    PTSUNNY   73  57  56 SE7       30.01F
FAIRMONT       PTSUNNY   77  46  33 SE8       30.00F
$$

...SOUTHWEST WISCONSIN...


CITY           SKY/WX    TMP DP  RH WIND       PRES   REMARKS
LA CROSSE      MOSUNNY   81  51  35 NW12      29.98F
PRAIRIE DU CHI PTSUNNY   77  46  33 NW3       30.00S
BOSCOBEL       PTSUNNY   83  51  33 NW7       30.00S
LONE ROCK      NOT AVBL
PLATTEVILLE    PTSUNNY   78  55  44 W12       30.01S
FORT MC COY    PTSUNNY   80  47  31 NW13G22   30.00S
VIROQUA        FAIR      76  53  45 NW9       30.02S
WIS DELLS      MOSUNNY   78  46  32 W12       29.98F
$$

...ELSEWHERE IN WISCONSIN...


CITY           SKY/WX    TMP DP  RH WIND       PRES   REMARKS
MILWAUKEE      PTSUNNY   80  50  34 W13G21    29.96S
MADISON        PTSUNNY   79  53  40 W8G16     29.98F
GREEN BAY      MOSUNNY   78  55  44 W12       29.94S
EAU CLAIRE     NOT AVBL
BLACK RVR FLS  FAIR      79  47  31 W9        29.98F
MEDFORD        CLOUDY    71  52  51 W8G18     30.00R
WAUSAU         CLOUDY    75  49  39 NW14      29.96S
WIS RAPIDS     CLOUDY    76  49  38 NW10      29.99F
MARSHFIELD     CLOUDY    74  49  41 NW9G18    29.99S
RICE LAKE      CLOUDY    75  53  46 NW6       30.00S
$$

...NORTHEAST IOWA...


CITY           SKY/WX    TMP DP  RH WIND       PRES   REMARKS
DECORAH        PTSUNNY   75  54  46 VRB5G13   30.01F
MASON CITY     PTSUNNY   79  54  41 E6        30.02
CHARLES CITY   PTSUNNY   77  54  44 CALM      30.02F
OELWEIN        MOSUNNY   77  54  44 VRB5      30.02F
$$

...ELSEWHERE IN IOWA...


CITY           SKY/WX    TMP DP  RH WIND       PRES   REMARKS
DES MOINES     CLOUDY    77  58  51 E9        29.96F
IOWA CITY      CLOUDY    79  63  57 CALM      30.00F
FORT DODGE     PTSUNNY   79  63  57 E7        29.98F
$$

...NORTHERN ILLINOIS...


CITY           SKY/WX    TMP DP  RH WIND       PRES   REMARKS
CHICAGO-OHARE  PTSUNNY   81  51  35 NW15G22   29.97S
CHICAGO-MIDWAY PTSUNNY   84  51  31 W13G21    29.97S
MOLINE         CLOUDY    80  59  48 VRB5      30.00F
ROCKFORD       PTSUNNY   81  53  37 NW10G20   30.01S
PEORIA         CLOUDY    81  60  48 NW6       30.01F
$$

NOTE: "FAIR" INDICATES FEW OR NO CLOUDS BELOW 12,000 FEET WITH NO
SIGNIFICANT WEATHER AND/OR OBSTRUCTIONS TO VISIBILITY. WIND
SPEEDS ARE IN MILES-PER-HOUR.



USA.gov is the U.S. government's official web portal to all federal, state and local government web resources and services.